Location: Hawaiian Village Mobile Home Park
(32.8359°N, 116.9792°W)
Time: 18:40:52
(UTC+00:00)

GPS 2-04 Rocket1 - Pass Details

Date: 01 August 2021
Orbit: 415 x 537 km, 35.6° (Epoch: 22 September)

Event Time Altitude Azimuth Distance (km) Brightness Sun altitude
Exits shadow 12:29:57 - 263° (W) 1,993 5.1 -7.0°
Reaches altitude 10° 12:30:29 10° 264° (W) 1,784 4.8 -6.9°
Maximum altitude 12:34:36 71° 348° (NNW) 560 2.9 -6.1°
Drops below altitude 10° 12:38:38 10° 73° (ENE) 1,750 7.2 -5.3°
Sets 12:40:51 0° 76° (ENE) 2,621 8.5 -4.9°
